sat.trackr.live / text

‹ back to catalog

STARLINK-32893

NORAD 62897 · 2025-024U

PAYLOAD ACTIVE UNKNOWN

§ Identity

Operator
Country
US
Launch date
2025-02-04
Launch site
AFETR
Launch vehicle
Mass (kg)
RCS (m²)

Purposes: comms

External: N2YO · Heavens-Above · Gunter

§ Orbital elements

Epoch: 2026-09-21T13:06:37.827360Z

Period
94.26 min
Inclination
43.0024°
Eccentricity
0.0001918
Mean motion
15.27611709 rev/d
Perigee alt
481.6 km
Apogee alt
484.3 km
Semi-major
6,861.1 km
B*
5.0208e-4
RAAN
298.9193°
Arg perigee
265.6364°
Mean anomaly
94.4269°
Rev number
9,222

§ Raw data

STARLINK-328931 62897U 25024U   26264.54627115  .00013593  00000+0  50208-3 0  99942 62897  43.0024 298.9193 0001918 265.6364  94.4269 15.27611709 92227

JSON: /api/v1/satellites/62897 · /tle

For live sub-satellite position, see the globe view (requires WebGL).

§ Visibility from observer

Set your observer location to see the next 7 days of passes ≥ 10°. The values pass through the URL so the page stays shareable.

No JS? Fill the form by hand. The geolocation button needs JavaScript.